Regional Weather Roundup
Issued by NWS Wakefield, VA

Home | Current Version | Previous Version | Graphics & Text | Print | Product List | Glossary On
Versions: 1 2 3 4 5 6 7 8 9 10 11 12 13 14 15 16 17 18 19 20 21 22 23 24 25 26 27 28 29 30 31 32 33 34 35 36 37 38 39 40 41 42 43 44 45 46 47 48 49 50
000
ASUS41 KAKQ 161810
RWRAKQ

REGIONAL WEATHER ROUNDUP
NATIONAL WEATHER SERVICE WAKEFIELD VA
200 PM EDT TUE SEP 16 2014

Note: "fair" indicates few or no clouds below 12,000 feet with no
significant weather and/or obstructions to visibility. * = Denotes
station may not report precipitation (e.g., rain,snow,etc.),
thunder or fog.

VAZ042-051-052>054-056-161900-
NORTHERN VIRGINIA

CITY           SKY/WX    TMP DP  RH WIND       PRES   REMARKS
WASH NATIONAL  MOSUNNY   76  52  43 NW14G20   30.01F
DULLES         PTSUNNY   72  50  45 NW13G18   30.02F
FORT BELVOIR   MOSUNNY   74  52  45 NW12G18   30.01F
QUANTICO       MOSUNNY   77  53  43 N12G29    30.01F
FREDERICKSBRG* MOSUNNY   78  58  50 N12G21    29.99F
STAFFORD*      MOSUNNY   76  57  50 NW12G17   30.05S
WARRENTON      MOSUNNY   78  60  53 NW8       30.01F
CULPEPER*      SUNNY     77  52  41 N13       30.02F
MANASSAS*      PTSUNNY   73  54  49 N8        30.02F
LEESBURG*      MOSUNNY   73  55  53 NW13G20   30.03S
WINCHESTER     PTSUNNY   72  50  46 NW13      30.03F
FRONT ROYAL*   MOCLDY    72  52  49 NW7       30.03F
LURAY*         CLEAR     75  54  46 NW12G20   30.04S
$$

VAZ048-049-060>072-079>083-161900-
CENTRAL AND SOUTH CENTRAL VIRGINIA...AND NORTH CENTRAL NORTH CAROLINA

CITY           SKY/WX    TMP DP  RH WIND       PRES   REMARKS
RICHMOND       PTSUNNY   80  58  46 NE8       29.98F
CHESTERFIELD*  MOCLDY    81  55  41 NW5       30.00F
PETERSBURG*    CLOUDY    80  57  45 SW5       29.99F
HANOVER        MOSUNNY   80  60  50 CALM      30.00F
TAPPAHANNOCK*  CLOUDY    78  55  44 CALM      30.00S
CHARLOTTSVILLE MOSUNNY   80  57  45 VRB5      30.01F
ORANGE*        PTSUNNY   77  55  47 NW8       30.02F
LOUISA*        PTSUNNY   77  61  57 N7G18     29.99S
FARMVILLE*     CLOUDY    81  57  44 CALM      29.98F
CREWE*         CLOUDY    80  62  53 CALM      30.00F
FORT PICKETT*  PTCLDY    79  60  51 NW6       30.00F
LUNENBURG*     CLOUDY    78  62  58 N3        30.00F
SOUTH HILL*    PTSUNNY   82  63  51 N6        30.05S
LAWRENCEVILLE* MOCLDY    78  62  56 NW6       29.99F
ROANOKE RAPIDS PTCLDY    79  63  57 CALM      29.99F
RALEIGH        PTSUNNY   80  60  50 NW5       30.01F
$$

VAZ088>098-161900-
SOUTHEAST VIRGINIA

CITY           SKY/WX    TMP DP  RH WIND       PRES   REMARKS
NORFOLK        PTSUNNY   76  57  51 NE6       29.99S
VIRGINIA BEACH MOSUNNY   79  57  46 N8        29.98F
NORFOLK NAVAL  PTSUNNY   80  59  48 N7        30.00F
WEST POINT*      N/A    N/A N/A N/A MISG        N/A
NEWPORT NEWS   MOSUNNY   84  62  47 VRB3      29.99F
LANGLEY AFB    PTSUNNY   78  63  58 VRB2      29.98F
FORT EUSTIS    MOSUNNY   76  59  53 N1        29.98F
WILLIAMSBURG*  MOSUNNY   82  66  57 S8        29.99F
HR EXEC AP*    MOCLDY    79  61  53 NW5       30.00F
FRANKLIN*        N/A     82  61  47 NW3       29.99F
WAKEFIELD      MOSUNNY   81  62  52 CALM      29.99F
$$

VAZ020-022-025-037-045-161900-
WEST CENTRAL AND SOUTHWEST VIRGINIA

CITY           SKY/WX    TMP DP  RH WIND       PRES   REMARKS
STAUNTON*      PTSUNNY   76  53  44 NW6       30.05F
HOT SPRINGS VA CLOUDY    58  45  62 W7        30.15S
LYNCHBURG      PTSUNNY   75  60  59 SW5       30.04F
DANVILLE       PTSUNNY   81  63  54 NE5       30.02F
SOUTH BOSTON*  NOT AVBL
MARTINSVILLE   CLOUDY    78  64  60 CALM      30.05F
ROANOKE        CLOUDY    71  59  65 NW6       30.07S
BLACKSBURG     CLOUDY    70  64  83 NW8       30.11F
DUBLIN*        CLOUDY    66  63  87 N5        30.11F
MARION*        CLOUDY    67  62  82 NW7       30.13S
HILLSVILLE*    CLOUDY    69  61  76 NW14G20   30.10F
RICHLANDS*     CLOUDY    67  62  85 N6        30.12F
WISE*          CLOUDY    66  63  88 NW6       30.14S
ABINGDON*      CLOUDY    72  65  80 W9        30.09F
$$

MDZ021>025-VAZ099-100-161900-
SOUTHERN MARYLAND AND THE DELMARVA PENINSULA

CITY           SKY/WX    TMP DP  RH WIND       PRES   REMARKS
PATUXENT RIVER PTSUNNY   76  56  49 NW12      29.98F
BAY BRIDGE APT   N/A     73  52  46 N8        29.99F
LEONARDTOWN    CLOUDY    73  55  53 N5        30.00F
DOVER          MOSUNNY   75  55  48 NW10      29.96S
GEORGETOWN     MOSUNNY   78  54  43 VRB6      29.97F
EASTON         MOSUNNY   75  57  53 N8        30.03S
CAMBRIDGE      PTSUNNY   77  55  47 NW12      29.99S
SALISBURY      PTSUNNY   79  57  46 NW13      29.97F
OCEAN CITY     MOSUNNY   77  56  48 NW9       29.96F
WALLOPS ISLAND MOSUNNY   79  58  48 NW14      29.97S
ACCOMACK*      SUNNY     77  55  47 N9        29.98F
$$

NCZ012>017-030>032-161900-
EASTERN NORTH CAROLINA

CITY           SKY/WX    TMP DP  RH WIND       PRES   REMARKS
ELIZABETH CITY SUNNY     81  65  58 N5        29.98F
AHOSKIE*       SUNNY     78  62  56 CALM      29.99F
EDENTON*       MOSUNNY   81  67  61 W6        29.98F
CURRITUCK*     SUNNY     81  60  48 N5        29.98F
KILL DEVIL HLS SUNNY     80  66  63 W5        29.98F
MANTEO         MOSUNNY   80  68  67 NW8       29.98F
CAPE HATTERAS  SUNNY     78  69  73 NW7       29.99F
TARBORO*       MOCLDY    82  64  55 CALM      30.00F
GOLDSBORO      MOSUNNY   83  70  64 CALM      29.98F
WASHINGTON     SUNNY     80  66  62 S5        29.99F
GREENVILLE     MOSUNNY   82  66  57 N5        30.01F
NEW BERN       MOSUNNY   84  69  60 VRB3      30.00F
WILMINGTON     PTSUNNY   81  72  74 N8        29.99F
$$

VAZ048-161900-
ELSEWHERE

CITY           SKY/WX    TMP DP  RH WIND       PRES   REMARKS
HARRISBURG PA  MOSUNNY   73  52  47 NW10      30.01F
BALTIMORE      PTSUNNY   73  52  47 VRB5      29.99F
ANNAPOLIS      PTSUNNY   73  55  53 W8        29.99F
ANDREWS AFB    MOSUNNY   73  54  51 VRB2      30.00F
WILMINGTON DE  CLOUDY    72  55  55 NW6       29.99F
PHILADELPHIA   PTSUNNY   72  53  51 NW8       29.98F
WILDWOOD NJ*   SUNNY     73  55  53 NW10      29.97S
ATLANTIC CITY  SUNNY     75  54  47 NW16      29.96S
HENDERSON NC   CLOUDY    78  59  52 NW3       30.02S
GREENSBORO     PTSUNNY   81  63  54 VRB5      30.02F
ROCKY MOUNT    MOSUNNY   84  64  50 NE5       29.99F
FAYETTEVILLE   MOSUNNY   82  66  58 NE6       30.00F
CHARLOTTE      MOSUNNY   84  63  49 CALM      30.02F
$$

VAZ100-161900-
MARINE

STATION/POSITION TIME  TEMP    WIND        PRES    WAVE   SWELL
                       AIR SEA DIR/SP/G            HT/PER HT/PER
                 (UTC) (F)     (DEG/KT/KT) (MB)    (FT/S) (FT/S)
44066 TX TWR #4  1800   67 74   30/  2/  4 1014.5F   2/ 9   2/ 9
CAPE MAY NJ      1800   74 76  320/  5/ 12 1014.3F
LEWES DE         1800   71 72   10/ 13/ 15 1014.7F
15NM E FENWICK I 1800   70 72              1014.3F   3/ 4
OCEAN-CITY-INLET 1800   75 72  320/  7/ 10 1014.2F
WACHAPREAGUE VA  1800   77 74  340/  4/ 11 1015.1F
THOMAS POINT MD  1800   71 75  340/ 10/ 12 1016.5F
GOOSES REEF MD   1800   72     360/ 10/ 14 1016.2S
COVE POINT MD    1800   72     360/  9/ 12 1015.5F
SOLOMONS ISLAND  1800      76                N/A
BISHOPS HEAD MD  1800   74 73  330/ 10/ 14 1015.1F
PINEY POINT MD   1800          330/ 13/ 15   N/A
POTOMAC MD       1800   74     310/ 12/ 14 1014.9F
CAMBRIDGE MD     1800   72 75  320/ 12/ 14 1015.1F
LEWISETTA VA     1800   75 74  360/  7/ 11 1015.1S
RAPPAHANNOCK LGT 1800          360/  9/  9 1016.0F
STINGRAY PT      1800   74     120/  2/  4   N/A
YORK RVR RNG VA  1800   74     140/  4/  5 1015.0F
YORKTOWN VA      1800   76 77  320/  3/  3 1015.1F
JAMESTOWN VA     1800   74        CALM       N/A
DOMINION TERM VA 1800   74     190/  2/  3 1015.6F
KIPTOPEKE VA     1800      79  330/ 10/ 12   N/A
CHES BAY BRIDGE  1800   73 76  320/  5/  7 1015.0F
CAPE HENRY VA    1800   74     320/  6/  8 1014.5R
CHESAPEAKE LGHT  1700   74     300/  7/  8 1016.6F
WILLOUBY STN VA  1800   74     100/  4/  5 1014.3F
S CRANEY ISL VA  1800          330/  5/  7 1015.2F
CAPE HENRY BUOY  1800      76                N/A     2/13   2/13
1ST LANDING BUOY 1800   73     320/  6/ 10 1015.3S
CAPE CHARLES BUO 1800      75                N/A     2/13   2/13
OFFSHORE WE BUOY 1800      75                N/A     2/13   2/13
64NM E OF VA BCH 1800   74 79  300/ 12/ 14 1014.7F   2/ 8   2/ 8
DUCK PIER NC     1800   75 76   40/  5/  6 1014.5F
44100 DUCK FRF   1800      75                N/A     2/13   2/13
44056 DUCK FRF   1800                        N/A     2/13   2/13
OREGON INLET NC  1800   79 75  180/  2/  2 1015.3F
HATTERAS NC      1800   78 77  280/  6/  7 1016.0F
DIAMOND SHLS NC  1800   76     290/  6/  8 1015.6F   2/ 7   2/ 7
CAPE LOOKOUT NC  1700   77     220/  5/  7 1016.2F
$$



USA.gov is the U.S. government's official web portal to all federal, state and local government web resources and services.